Location: Deer Lodge Site
(39.6809°N, 119.9392°W)
Time: 21:56:49
(UTC-08:00)

Amateur Radio Satellites - All Passes

Search period start: 05 March 2015 21:26
Search period end: 06 March 2015 21:26
Location: Deer Lodge Site, 39.6809°N, 119.9392°W

Satellite Date Start Highest point End Downlink Frequencies (MHz)
Time Altitude Azimuth
PCSat 05 Mar 21:28:02 21:31:49 18° 316° (NW) 21:35:28 145.827
UNISAT 6 05 Mar 21:32:08 21:34:05 13° 90° (E) 21:36:15 437.425
Oscar 11 05 Mar 21:32:29 21:36:23 33° 264° (W) 21:40:15 145.826/435.025
GONETS M04 05 Mar 21:33:27 21:42:08 85° 96° (E) 21:50:52
POPSAT HIP 1 05 Mar 21:50:42 21:51:11 10° 88° (E) 21:51:58 437.405
POLYITAN 1 05 Mar 21:51:30 21:52:32 11° 89° (E) 21:53:50 437.675
TIGRISAT 05 Mar 21:54:18 21:57:41 23° 94° (E) 22:01:11 435.000
VERMONT LUNAR 05 Mar 21:58:54 22:00:24 12° 214° (SW) 22:01:49 437.305
DELFI C3 05 Mar 22:01:51 22:04:44 18° 268° (W) 22:07:32 145.870
HUMSAT D 05 Mar 22:01:53 22:06:00 59° 260° (W) 22:10:07 437.325/437.525
DX 1 05 Mar 22:02:49 22:06:46 32° 263° (W) 22:10:42 434.975-435.025
CUBEBUG 2 05 Mar 22:03:50 22:07:19 21° 267° (W) 22:10:37 437.445
CINEMA 3 05 Mar 22:08:56 22:10:52 12° 271° (W) 22:12:29 145.822/145.860
ANTELSAT 05 Mar 22:09:28 22:13:25 34° 97° (E) 22:17:27 437.575/2403.000
NANOSAT C BR1 05 Mar 22:10:20 22:13:14 18° 92° (E) 22:16:15 145.865
CUBEBUG 1 05 Mar 22:13:03 22:17:22 53° 74° (ENE) 22:21:44 437.445
AISAT 05 Mar 22:22:00 22:26:23 50° 260° (W) 22:30:46 437.250
TISAT 1 05 Mar 22:24:10 22:26:39 16° 67° (ENE) 22:29:19 437.305
DANDE 05 Mar 22:25:36 22:29:48 19° 94° (E) 22:33:32 436.750
FUNcube-1 05 Mar 22:25:45 22:28:48 18° 268° (W) 22:31:40 145.935
PHONESAT 2.4 05 Mar 22:27:33 22:29:56 16° 212° (SSW) 22:32:13 2401.200-2431.200
ZACube-1 05 Mar 22:28:34 22:31:26 17° 268° (W) 22:34:07 437.345
UKube-1 05 Mar 22:28:55 22:31:58 18° 267° (W) 22:34:53 .
VELOX 1 05 Mar 22:29:56 22:34:12 42° 262° (W) 22:38:28 145.980
SPROUT 05 Mar 22:32:18 22:35:31 21° 68° (ENE) 22:38:51 437.525
CUSAT 1 05 Mar 22:33:47 22:38:33 26° 96° (E) 22:42:29 437.405
BUGSAT 1 05 Mar 22:35:21 22:38:47 25° 95° (E) 22:42:13 437.445
QB50P1 05 Mar 22:43:18 22:47:21 44° 99° (E) 22:51:23 145.935-145.965
QB50P2 05 Mar 22:48:23 22:52:31 52° 100° (E) 22:56:39 145.880/145.840
50 SAT 05 Mar 22:57:51 23:00:43 18° 267° (W) 23:03:27 437.505
ESTCUBE 1 05 Mar 22:59:01 23:03:21 43° 262° (W) 23:07:42 437.505/2401.250
DUCHIFAT 1 05 Mar 23:00:11 23:04:24 70° 101° (E) 23:08:34 145.980
UNISAT 6 05 Mar 23:07:03 23:11:15 51° 286° (WNW) 23:15:29 437.425
SO-50 05 Mar 23:13:46 23:14:40 11° 108° (ESE) 23:15:53 436.795
POPSAT HIP 1 05 Mar 23:23:24 23:27:35 61° 285° (WNW) 23:31:44 437.405
RS-15 05 Mar 23:23:34 23:34:29 72° 306° (NW) 23:45:33 29.354- 29.394
POLYITAN 1 05 Mar 23:24:46 23:28:56 58° 286° (WNW) 23:33:03 437.675
TIGRISAT 05 Mar 23:30:43 23:34:29 29° 289° (WNW) 23:38:13 435.000
GONETS M04 05 Mar 23:34:13 23:40:19 19° 298° (WNW) 23:46:00
SWISSCUBE 05 Mar 23:40:53 23:44:17 20° 66° (ENE) 23:47:49 437.505
NANOSAT C BR1 05 Mar 23:45:24 23:49:15 34° 289° (WNW) 23:53:02 145.865
ANTELSAT 05 Mar 23:46:51 23:50:03 20° 292° (WNW) 23:53:11 437.575/2403.000
BEESAT 05 Mar 23:48:36 23:52:11 22° 67° (ENE) 23:55:54 436.000
CUBEBUG 1 05 Mar 23:51:49 23:54:09 13° 271° (W) 23:56:14 437.445
TISAT 1 05 Mar 23:58:02 00:02:09 45° 261° (W) 00:06:16 437.305
DANDE 06 Mar 00:06:48 00:13:09 51° 281° (W) 00:17:52 436.750
SPROUT 06 Mar 00:07:31 00:11:28 32° 264° (W) 00:15:21 437.525
BUGSAT 1 06 Mar 00:10:50 00:14:13 24° 291° (WNW) 00:17:28 437.445
BEESAT 3 06 Mar 00:11:27 00:14:41 22° 47° (NE) 00:17:58 437.485
CUSAT 1 06 Mar 00:16:10 00:21:22 32° 282° (WNW) 00:25:23 437.405
ITUPSAT 1 06 Mar 00:17:19 00:21:46 41° 71° (ENE) 00:26:19 437.325
QB50P1 06 Mar 00:20:22 00:22:55 15° 294° (WNW) 00:25:19 145.935-145.965
QB50P2 06 Mar 00:25:54 00:28:03 13° 295° (WNW) 00:30:00 145.880/145.840
Oscar 19 06 Mar 00:35:27 00:39:15 21° 93° (E) 00:43:12 437.125/150
DUCHIFAT 1 06 Mar 00:39:03 00:39:44 10° 296° (WNW) 00:40:10 145.980
KKS-1 06 Mar 00:39:14 00:41:15 13° 65° (ENE) 00:43:29 437.445
BEESAT 2 06 Mar 00:40:46 00:44:36 35° 51° (NE) 00:48:25 435.950
SO-50 06 Mar 00:50:00 00:54:35 79° 302° (WNW) 00:59:22 436.795
AIST 2 06 Mar 00:59:03 01:02:27 23° 47° (NE) 01:05:53 435.215
SWISSCUBE 06 Mar 01:17:20 01:21:52 43° 261° (W) 01:26:27 437.505
BEESAT 06 Mar 01:25:23 01:29:50 38° 262° (W) 01:34:18 436.000
YUBILEINY 06 Mar 01:35:59 01:43:13 28° 67° (ENE) 01:50:39 435.215
RS-15 06 Mar 01:40:37 01:49:21 25° 334° (NNW) 01:58:03 29.354- 29.394
BEESAT 3 06 Mar 01:49:06 01:52:55 36° 245° (WSW) 01:56:37 437.485
ITUPSAT 1 06 Mar 01:56:20 01:59:54 20° 268° (W) 02:03:20 437.325
STARS 06 Mar 02:10:38 02:15:04 82° 74° (ENE) 02:19:30 437.465
KKS-1 06 Mar 02:13:02 02:17:27 60° 259° (W) 02:21:54 437.445
Oscar 19 06 Mar 02:13:59 02:18:50 43° 289° (WNW) 02:23:39 437.125/150
Gurwin Techsat 1B 06 Mar 02:14:31 02:19:40 48° 99° (E) 02:24:47 435.225
BEESAT 2 06 Mar 02:19:26 02:22:35 21° 248° (WSW) 02:25:36 435.950
ITAMSAT 1 06 Mar 02:20:22 02:25:35 72° 102° (ESE) 02:30:47 435.822/435.867
JUGNU 06 Mar 02:21:56 02:22:23 10° 181° (S) 02:22:49 437.505
SO-50 06 Mar 02:33:48 02:36:02 13° 324° (NW) 02:38:09 436.795
HORYU 2 06 Mar 02:34:13 02:37:06 17° 92° (E) 02:40:09 437.375
AIST 2 06 Mar 02:37:15 02:41:11 36° 245° (WSW) 02:45:01 435.215
JAS-2 06 Mar 02:52:30 02:56:50 17° 86° (E) 03:01:42 435.910
AO-7 06 Mar 03:09:45 03:16:32 29° 94° (E) 03:23:33 29.400- 29.500
AUBIESAT-1 06 Mar 03:25:01 03:28:17 58° 70° (ENE) 03:31:45 437.475
M-CUBED/EXP-1 PRIME 06 Mar 03:26:19 03:29:38 71° 70° (ENE) 03:33:07 437.505
YUBILEINY 06 Mar 03:32:02 03:40:44 63° 268° (W) 03:49:21 435.215
MOZHAYETS 4 06 Mar 03:51:30 03:56:02 70° 76° (ENE) 04:00:36
Gurwin Techsat 1B 06 Mar 03:55:18 03:59:21 22° 294° (WNW) 04:03:14 435.225
RS-15 06 Mar 03:59:52 04:07:12 19° 9° (N) 04:14:50 29.354- 29.394
ITAMSAT 1 06 Mar 04:01:39 04:04:33 15° 298° (WNW) 04:07:13 435.822/435.867
HORYU 2 06 Mar 04:09:48 04:14:00 41° 288° (WNW) 04:18:11 437.375
SRMSAT 06 Mar 04:19:05 04:19:37 10° 183° (S) 04:20:07 437.500
CUBESAT XI-V 06 Mar 04:26:56 04:29:06 13° 64° (ENE) 04:31:28 437.345
PCSat 06 Mar 04:31:11 04:36:27 49° 56° (NE) 04:41:42 145.827
JAS-2 06 Mar 04:35:11 04:42:50 87° 103° (ESE) 04:50:45 435.910
AO-7 06 Mar 05:01:45 05:09:54 61° 292° (WNW) 05:17:57 29.400- 29.500
PRISM 06 Mar 05:07:39 05:11:21 33° 71° (ENE) 05:15:09 437.425
MOZHAYETS 4 06 Mar 05:32:58 05:33:52 10° 273° (W) 05:34:28
CUBESAT XI-V 06 Mar 06:01:23 06:06:03 66° 259° (W) 06:10:45 437.345
STRAND 1 06 Mar 06:03:22 06:08:31 80° 74° (ENE) 06:13:42 437.568
RS-15 06 Mar 06:13:27 06:23:57 41° 41° (NE) 06:35:00 29.354- 29.394
PCSat 06 Mar 06:15:23 06:19:34 22° 252° (WSW) 06:23:36 145.827
Cubesat XI-IV 06 Mar 06:17:10 06:22:32 71° 101° (ESE) 06:27:52 437.490
JAS-2 06 Mar 06:21:46 06:27:08 21° 299° (WNW) 06:32:20 435.910
CUTE-I 06 Mar 06:24:56 06:30:20 82° 103° (ESE) 06:35:41 437.470
ISS 06 Mar 06:37:11 06:39:52 25° 134° (SE) 06:42:36 145.825
PRISM 06 Mar 06:43:58 06:46:59 19° 267° (W) 06:49:55 437.425
AIST 1 06 Mar 06:51:19 06:55:40 64° 279° (W) 07:00:03
AO-7 06 Mar 06:57:25 07:01:12 13° 312° (NW) 07:04:30 29.400- 29.500
O/OREOS (USA 219) 06 Mar 07:17:59 07:20:33 15° 101° (E) 07:23:20 437.305
SO-50 06 Mar 07:43:29 07:45:43 13° 37° (NE) 07:48:07 436.795
GONETS M04 06 Mar 07:44:56 07:53:02 41° 73° (ENE) 08:01:15
STRAND 1 06 Mar 07:46:49 07:48:27 11° 273° (W) 07:49:44 437.568
HO-68 06 Mar 07:52:21 07:58:11 27° 93° (E) 08:04:11 435.675
Cubesat XI-IV 06 Mar 07:58:56 08:02:06 16° 298° (WNW) 08:05:03 437.490
SEEDS 06 Mar 08:02:31 08:05:20 18° 92° (E) 08:08:18 437.485
CUTE-I 06 Mar 08:07:11 08:09:48 13° 299° (WNW) 08:12:08 437.470
CANX-2 06 Mar 08:11:34 08:15:18 29° 96° (E) 08:19:04 2200.000
ISS 06 Mar 08:13:13 08:16:13 34° 330° (NNW) 08:19:13 145.825
RS-15 06 Mar 08:25:49 08:37:10 66° 244° (WSW) 08:48:56 29.354- 29.394
CINEMA 3 06 Mar 08:26:04 08:28:08 14° 90° (E) 08:30:25 145.822/145.860
CUTE 1.7 + AOD 2 06 Mar 08:29:18 08:33:22 43° 98° (E) 08:37:27 437.475
GOMX 1 06 Mar 08:31:00 08:35:09 47° 99° (E) 08:39:09 467.674
UNISAT 6 06 Mar 08:31:48 08:33:10 12° 65° (ENE) 08:34:46 437.425
DOVE 4 06 Mar 08:46:33 08:50:37 47° 99° (E) 08:54:38 437.250
BRITE-PL 06 Mar 08:46:52 08:51:18 71° 284° (WNW) 08:55:28 437.365/2234.400
TIGRISAT 06 Mar 08:53:04 08:56:06 19° 68° (ENE) 08:59:14 435.000
O/OREOS (USA 219) 06 Mar 08:55:10 08:59:36 48° 296° (WNW) 09:04:04 437.305
AAUSAT CUBESAT 2 06 Mar 08:57:50 09:01:57 54° 100° (E) 09:06:05 437.432
NANOSAT C BR1 06 Mar 09:03:22 09:05:30 14° 66° (ENE) 09:07:48 145.865
COMPASS 1 06 Mar 09:03:38 09:07:51 75° 101° (ESE) 09:12:04 437.405
ANTELSAT 06 Mar 09:08:12 09:11:55 29° 70° (ENE) 09:15:39 437.575/2403.000
UWE-3 06 Mar 09:09:14 09:12:15 20° 93° (E) 09:15:23 435.000/436.395/437.385
Oscar 11 06 Mar 09:20:12 09:24:22 45° 98° (E) 09:28:33 145.826/435.025
SO-50 06 Mar 09:22:14 09:27:12 74° 57° (ENE) 09:32:07 436.795
BUGSAT 1 06 Mar 09:25:20 09:28:12 18° 68° (ENE) 09:31:11 437.445
QB50P1 06 Mar 09:35:31 09:39:16 31° 71° (ENE) 09:43:04 145.935-145.965
SEEDS 06 Mar 09:37:25 09:41:20 36° 288° (WNW) 09:45:13 437.485
HO-68 06 Mar 09:39:18 09:46:19 56° 291° (WNW) 09:53:16 435.675
QB50P2 06 Mar 09:40:41 09:44:35 36° 72° (ENE) 09:48:31 145.880/145.840
DELFI C3 06 Mar 09:41:09 09:45:13 63° 101° (E) 09:49:17 145.870
GONETS M04 06 Mar 09:41:50 09:49:56 43° 272° (W) 09:57:57
HUMSAT D 06 Mar 09:47:35 09:50:47 22° 94° (E) 09:54:05 437.325/437.525
CANX-2 06 Mar 09:47:45 09:51:07 22° 291° (WNW) 09:54:24 2200.000
DX 1 06 Mar 09:51:38 09:55:49 44° 99° (E) 09:59:59 434.975-435.025
DUCHIFAT 1 06 Mar 09:51:51 09:55:56 46° 73° (ENE) 10:00:03 145.980
ISS 06 Mar 09:52:07 09:53:25 12° 349° (N) 09:54:40 145.825
CUBEBUG 2 06 Mar 09:54:34 09:58:45 83° 103° (ESE) 10:02:56 437.445
CINEMA 3 06 Mar 10:01:43 10:05:41 43° 287° (WNW) 10:09:37 145.822/145.860
UNISAT 6 06 Mar 10:05:11 10:09:32 65° 259° (WSW) 10:13:49 437.425
CUBEBUG 1 06 Mar 10:06:06 10:06:33 10° 88° (E) 10:07:17 437.445
CUTE 1.7 + AOD 2 06 Mar 10:06:17 10:09:01 16° 293° (WNW) 10:11:34 437.475
GOMX 1 06 Mar 10:10:37 10:12:55 14° 295° (WNW) 10:15:00 467.674
FUNcube-1 06 Mar 10:13:24 10:17:35 89° 102° (ESE) 10:21:46 145.935
AISAT 06 Mar 10:14:01 10:17:59 32° 96° (E) 10:21:58 437.250
POPSAT HIP 1 06 Mar 10:15:08 10:19:26 88° 83° (E) 10:23:44 437.405
UKube-1 06 Mar 10:15:46 10:20:08 81° 104° (ESE) 10:24:28 .
ZACube-1 06 Mar 10:16:13 10:20:23 83° 283° (WNW) 10:24:35 437.345
POLYITAN 1 06 Mar 10:16:46 10:21:04 87° 257° (WSW) 10:25:22 437.675
VELOX 1 06 Mar 10:21:25 10:25:33 37° 98° (E) 10:29:40 145.980
DOVE 4 06 Mar 10:25:52 10:28:03 14° 294° (WNW) 10:30:03 437.250
TIGRISAT 06 Mar 10:28:37 10:32:40 36° 263° (W) 10:36:38 435.000
AAUSAT CUBESAT 2 06 Mar 10:35:13 10:37:12 13° 294° (WNW) 10:38:59 437.432
50 SAT 06 Mar 10:35:44 10:39:37 56° 100° (E) 10:43:32 437.505
NANOSAT C BR1 06 Mar 10:36:49 10:40:59 51° 260° (W) 10:45:10 145.865
RS-15 06 Mar 10:43:00 10:47:55 13° 261° (W) 10:51:40 29.354- 29.394
ANTELSAT 06 Mar 10:45:11 10:48:45 23° 266° (W) 10:52:11 437.575/2403.000
UWE-3 06 Mar 10:45:12 10:48:54 31° 289° (WNW) 10:52:35 435.000/436.395/437.385
DANDE 06 Mar 10:50:07 10:52:41 54° 262° (W) 10:55:22 436.750
ESTCUBE 1 06 Mar 10:52:34 10:56:52 40° 98° (E) 11:01:09 437.505/2401.250
CUSAT 1 06 Mar 10:55:26 10:57:46 28° 263° (W) 11:00:17 437.405
Oscar 11 06 Mar 10:57:31 11:00:15 16° 293° (WNW) 11:02:49 145.826/435.025
BUGSAT 1 06 Mar 10:59:26 11:03:26 38° 262° (W) 11:07:26 437.445
SO-50 06 Mar 11:04:53 11:07:14 13° 251° (WSW) 11:09:18 436.795
QB50P1 06 Mar 11:11:53 11:15:14 21° 267° (W) 11:18:28 145.935-145.965
QB50P2 06 Mar 11:17:36 11:20:39 18° 268° (W) 11:23:35 145.880/145.840
DELFI C3 06 Mar 11:18:51 11:19:58 11° 295° (WNW) 11:20:51 145.870
HUMSAT D 06 Mar 11:23:03 11:26:36 27° 289° (WNW) 11:30:04 437.325/437.525
DX 1 06 Mar 11:28:56 11:31:45 17° 294° (WNW) 11:34:25 434.975-435.025
DUCHIFAT 1 06 Mar 11:29:41 11:32:05 14° 269° (W) 11:34:18 145.980
ISS 06 Mar 11:29:50 11:30:58 11° 10° (N) 11:32:08 145.825
HO-68 06 Mar 11:31:37 11:32:42 10° 309° (NW) 11:33:17 435.675
CUBEBUG 1 06 Mar 11:39:06 11:43:29 66° 286° (WNW) 11:47:49 437.445
TISAT 1 06 Mar 11:43:55 11:47:34 28° 96° (E) 11:51:14 437.305
AISAT 06 Mar 11:50:58 11:54:28 22° 292° (WNW) 11:57:51 437.250
Oscar 19 06 Mar 11:51:27 11:55:48 29° 68° (ENE) 12:00:13 437.125/150
SPROUT 06 Mar 11:54:45 11:58:52 44° 98° (E) 12:02:57 437.525
VELOX 1 06 Mar 11:58:39 12:01:54 20° 293° (WNW) 12:05:01 145.980
ITAMSAT 1 06 Mar 12:01:41 12:03:48 13° 61° (ENE) 12:06:12 435.822/435.867
50 SAT 06 Mar 12:12:59 12:14:13 11° 294° (WNW) 12:15:15 437.505
ITUPSAT 1 06 Mar 12:21:14 12:22:32 11° 88° (E) 12:24:09 437.325
ESTCUBE 1 06 Mar 12:30:12 12:33:29 19° 293° (WNW) 12:36:37 437.505/2401.250
ISS 06 Mar 13:05:16 13:08:12 31° 29° (NNE) 13:11:09 145.825
SWISSCUBE 06 Mar 13:18:20 13:23:02 51° 100° (E) 13:27:42 437.505
TISAT 1 06 Mar 13:19:55 13:23:16 23° 291° (WNW) 13:26:30 437.305
BEESAT 06 Mar 13:26:07 13:30:51 57° 101° (E) 13:35:35 436.000
Oscar 19 06 Mar 13:30:30 13:35:06 32° 264° (W) 13:39:39 437.125/150
SPROUT 06 Mar 13:31:58 13:34:39 16° 293° (WNW) 13:37:10 437.525
HORYU 2 06 Mar 13:32:39 13:35:10 16° 66° (ENE) 13:37:52 437.375
Gurwin Techsat 1B 06 Mar 13:34:43 13:39:59 70° 74° (ENE) 13:45:18 435.225
ITAMSAT 1 06 Mar 13:37:28 13:42:41 83° 255° (WSW) 13:47:58 435.822/435.867
ITUPSAT 1 06 Mar 13:56:14 14:01:03 72° 286° (WNW) 14:05:51 437.325
STARS 06 Mar 14:02:44 14:05:20 16° 91° (E) 14:08:06 437.465
KKS-1 06 Mar 14:05:30 14:09:14 27° 95° (E) 14:13:02 437.445
AO-7 06 Mar 14:07:47 14:15:12 38° 62° (ENE) 14:22:43 29.400- 29.500
YUBILEINY 06 Mar 14:36:18 14:43:37 33° 85° (E) 14:51:12 435.215
VERMONT LUNAR 06 Mar 14:41:18 14:43:48 19° 149° (SSE) 14:46:22 437.305
ISS 06 Mar 14:41:45 14:44:36 28° 225° (SW) 14:47:26 145.825
JAS-2 06 Mar 14:47:37 14:52:33 32° 66° (ENE) 14:58:08 435.910
SWISSCUBE 06 Mar 14:57:20 15:00:32 17° 295° (WNW) 15:03:33 437.505
BEESAT 06 Mar 15:05:21 15:08:17 16° 296° (WNW) 15:11:02 436.000
HORYU 2 06 Mar 15:07:11 15:11:29 49° 260° (W) 15:15:48 437.375
PHONESAT 2.4 06 Mar 15:16:34 15:19:03 18° 148° (SSE) 15:21:35 2401.200-2431.200
Gurwin Techsat 1B 06 Mar 15:17:48 15:20:35 14° 272° (W) 15:23:05 435.225
STARS 06 Mar 15:37:55 15:42:05 43° 288° (WNW) 15:46:13 437.465
BEESAT 3 06 Mar 15:41:33 15:45:29 49° 117° (ESE) 15:49:30 437.485
KKS-1 06 Mar 15:42:06 15:45:50 26° 291° (WNW) 15:49:29 437.445
MOZHAYETS 4 06 Mar 15:48:32 15:51:39 18° 91° (E) 15:54:55
AO-7 06 Mar 15:59:49 16:07:51 49° 260° (W) 16:15:50 29.400- 29.500
Cubesat XI-IV 06 Mar 16:01:38 16:04:14 14° 62° (ENE) 16:07:08 437.490
CUTE-I 06 Mar 16:08:42 16:11:49 16° 63° (ENE) 16:15:10 437.470
BEESAT 2 06 Mar 16:11:53 16:15:59 89° 296° (WNW) 16:20:11 435.950
VERMONT LUNAR 06 Mar 16:17:53 16:21:21 69° 165° (SSE) 16:24:50 437.305
YUBILEINY 06 Mar 16:31:37 16:40:07 53° 284° (WNW) 16:48:40 435.215
JAS-2 06 Mar 16:32:31 16:37:38 35° 266° (W) 16:43:15 435.910
AIST 2 06 Mar 16:34:02 16:38:11 57° 118° (ESE) 16:42:24 435.215
AUBIESAT-1 06 Mar 16:40:29 16:44:52 60° 105° (ESE) 16:49:30 437.475
M-CUBED/EXP-1 PRIME 06 Mar 16:42:19 16:46:44 71° 107° (ESE) 16:51:26 437.505
PHONESAT 2.4 06 Mar 16:53:31 16:57:07 64° 163° (SSE) 17:00:44 2401.200-2431.200
AIST 1 06 Mar 16:59:49 17:03:36 28° 74° (ENE) 17:07:25
BEESAT 3 06 Mar 17:20:59 17:23:53 18° 316° (NW) 17:26:42 437.485
MOZHAYETS 4 06 Mar 17:24:44 17:29:08 42° 288° (WNW) 17:33:30
O/OREOS (USA 219) 06 Mar 17:27:04 17:30:57 27° 59° (ENE) 17:34:53 437.305
Cubesat XI-IV 06 Mar 17:38:23 17:43:45 78° 256° (WSW) 17:49:11 437.490
CUTE-I 06 Mar 17:46:04 17:51:24 67° 258° (WSW) 17:56:47 437.470
BEESAT 2 06 Mar 17:53:17 17:54:51 12° 321° (NW) 17:56:17 435.950
VERMONT LUNAR 06 Mar 17:55:47 17:59:17 75° 2° (N) 18:02:46 437.305
CUBESAT XI-V 06 Mar 17:59:19 18:03:34 33° 96° (E) 18:07:48 437.345
AIST 2 06 Mar 18:14:17 18:17:11 17° 317° (NW) 18:19:59 435.215
STRAND 1 06 Mar 18:15:18 18:19:42 29° 95° (E) 18:24:09 437.568
AUBIESAT-1 06 Mar 18:16:48 18:19:23 15° 298° (WNW) 18:21:53 437.475
M-CUBED/EXP-1 PRIME 06 Mar 18:19:09 18:21:15 13° 299° (WNW) 18:23:13 437.505
BRITE-PL 06 Mar 18:20:00 18:23:00 16° 65° (ENE) 18:26:09 437.365/2234.400
HO-68 06 Mar 18:21:34 18:26:17 20° 58° (ENE) 18:31:18 435.675
PRISM 06 Mar 18:26:03 18:30:16 63° 101° (ESE) 18:34:26 437.425
PHONESAT 2.4 06 Mar 18:31:56 18:35:35 76° 359° (N) 18:39:14 2401.200-2431.200
AIST 1 06 Mar 18:37:40 18:41:10 23° 271° (W) 18:44:33
SEEDS 06 Mar 18:55:38 18:57:08 12° 65° (ENE) 18:58:52 437.485
CANX-2 06 Mar 19:04:33 19:07:35 20° 68° (ENE) 19:10:43 2200.000
O/OREOS (USA 219) 06 Mar 19:06:24 19:10:23 29° 256° (WSW) 19:14:15 437.305
PCSat 06 Mar 19:11:53 19:17:06 53° 114° (ESE) 19:22:24 145.827
CUTE 1.7 + AOD 2 06 Mar 19:21:51 19:25:25 28° 71° (ENE) 19:29:03 437.475
CINEMA 3 06 Mar 19:27:27 19:29:55 15° 67° (ENE) 19:32:31 145.822/145.860
VERMONT LUNAR 06 Mar 19:33:43 19:37:10 62° 198° (SSW) 19:40:37 437.305
CUBESAT XI-V 06 Mar 19:37:04 19:40:53 24° 292° (WNW) 19:44:34 437.345
GOMX 1 06 Mar 19:37:20 19:42:28 53° 74° (ENE) 19:47:22 467.674
AAUSAT CUBESAT 2 06 Mar 19:48:18 19:51:59 33° 72° (ENE) 19:55:44 437.432
DOVE 4 06 Mar 19:50:42 19:55:34 49° 74° (ENE) 20:00:12 437.250
COMPASS 1 06 Mar 19:54:18 19:58:14 44° 74° (ENE) 20:02:14 437.405
STRAND 1 06 Mar 19:54:20 19:58:56 33° 291° (WNW) 20:03:26 437.568
BRITE-PL 06 Mar 19:55:27 20:01:04 73° 259° (WSW) 20:06:23 437.365/2234.400
PRISM 06 Mar 20:03:42 20:05:17 12° 296° (WNW) 20:06:39 437.425
HO-68 06 Mar 20:06:09 20:13:18 81° 255° (WSW) 20:20:31 435.675
UWE-3 06 Mar 20:06:30 20:09:10 17° 68° (ENE) 20:11:56 435.000/436.395/437.385
PHONESAT 2.4 06 Mar 20:10:26 20:14:03 68° 197° (SSW) 20:17:40 2401.200-2431.200
Oscar 11 06 Mar 20:14:27 20:18:14 32° 71° (ENE) 20:22:05 145.826/435.025
SEEDS 06 Mar 20:28:25 20:32:32 57° 260° (W) 20:36:41 437.485
DELFI C3 06 Mar 20:28:32 20:32:10 34° 72° (ENE) 20:35:51 145.870
CANX-2 06 Mar 20:39:32 20:43:21 32° 264° (W) 20:47:09 2200.000
HUMSAT D 06 Mar 20:39:54 20:42:17 15° 67° (ENE) 20:44:49 437.325/437.525
RS-15 06 Mar 20:40:20 20:47:19 21° 103° (ESE) 20:54:58 29.354- 29.394
GONETS M04 06 Mar 20:44:52 20:52:58 48° 90° (E) 21:01:13
DX 1 06 Mar 20:46:32 20:50:31 35° 71° (ENE) 20:54:33 434.975-435.025
CUBEBUG 2 06 Mar 20:51:53 20:56:18 63° 75° (ENE) 21:00:35 437.445
PCSat 06 Mar 20:56:31 21:00:53 24° 312° (NW) 21:05:11 145.827
CUTE 1.7 + AOD 2 06 Mar 20:57:59 21:01:21 23° 266° (W) 21:04:41 437.475
CINEMA 3 06 Mar 21:02:09 21:06:48 55° 260° (W) 21:11:15 145.822/145.860
FUNcube-1 06 Mar 21:08:19 21:12:36 63° 75° (ENE) 21:16:48 145.935
UKube-1 06 Mar 21:09:45 21:14:02 61° 74° (ENE) 21:18:22 .
ZACube-1 06 Mar 21:11:17 21:15:36 69° 76° (ENE) 21:19:50 437.345
AISAT 06 Mar 21:11:25 21:15:11 28° 69° (ENE) 21:19:03 437.250
VERMONT LUNAR 06 Mar 21:12:23 21:14:40 16° 212° (SSW) 21:16:54 437.305
GOMX 1 06 Mar 21:17:13 21:20:53 18° 269° (W) 21:24:14 467.674
VELOX 1 06 Mar 21:18:29 21:22:25 32° 70° (ENE) 21:26:25 145.980
